Location: Nitra
(48.3167°N, 18.0833°E)
Time: 09:00:07
(UTC+02:00)

ISS - Visible Passes

Search period start: 21 May 2018 00:00
Search period end: 31 May 2018 00:00
Orbit: 402 x 407 km, 51.6° (Epoch: 21 May)

Date Brightness Start Highest point End Pass type
(mag) Time Alt. Az. Time Alt. Az. Time Alt. Az.
21 May -2.7 00:46:42 10° W 00:49:53 45° N 00:53:02 10° ENE visible
21 May -3.4 02:23:24 10° WNW 02:26:39 62° NNE 02:29:54 10° E visible
21 May -3.2 04:00:02 10° W 04:03:02 34° SW 04:06:02 10° SSE visible
21 May -3.8 22:17:53 10° SW 22:21:04 52° SSE 22:24:16 10° ENE visible
21 May -3.0 23:54:24 10° W 23:57:36 51° N 00:00:49 10° ENE visible
22 May -2.9 01:31:12 10° WNW 01:34:24 50° N 01:37:36 10° E visible
22 May -3.8 03:07:45 10° WNW 03:10:57 55° SSW 03:14:09 10° SE visible
22 May -3.1 21:26:01 10° SSW 21:28:59 32° SE 21:31:57 10° E visible
22 May -3.4 23:02:05 10° W 23:05:21 64° NNW 23:08:35 10° ENE visible
23 May -2.7 00:38:57 10° WNW 00:42:07 45° N 00:45:17 10° ENE visible
23 May -4.0 02:15:31 10° WNW 02:18:48 85° SSW 02:22:04 10° ESE visible
23 May -2.3 03:52:38 10° W 03:54:54 18° SW 03:57:10 10° S visible
23 May -3.9 22:09:50 10° WSW 22:13:06 88° NNW 22:16:23 10° ENE visible
23 May -2.7 23:46:39 10° WNW 23:49:49 44° N 23:52:58 10° ENE visible
24 May -3.6 01:23:18 10° WNW 01:26:34 69° NNE 01:27:54 32° E visible
24 May -1.4 03:00:01 10° W 03:07:33 - SE 03:00:17 12° W visible
24 May -3.8 21:17:41 10° SW 21:20:55 62° SSE 21:24:09 10° ENE visible
24 May -2.8 22:54:18 10° W 22:57:30 48° N 23:00:41 10° ENE visible
25 May -3.1 00:31:04 10° WNW 00:34:18 53° NNE 00:35:40 29° ENE visible
25 May -1.5 02:07:38 10° WNW 02:08:15 14° WNW 02:08:15 14° WNW visible
25 May -3.2 22:01:56 10° W 22:05:11 58° NNW 22:08:26 10° ENE visible
25 May -2.8 23:38:48 10° WNW 23:41:59 46° N 23:44:34 14° ENE visible
26 May -2.5 01:15:21 10° WNW 01:17:10 30° WNW 01:17:10 30° WNW visible
26 May -3.6 21:09:38 10° WSW 21:12:54 78° NNW 21:16:11 10° ENE visible
26 May -2.7 22:46:28 10° WNW 22:49:38 44° N 22:52:48 10° ENE visible
27 May -3.8 00:23:06 10° WNW 00:26:18 77° N 00:26:18 77° N visible
27 May -2.7 21:54:06 10° W 21:57:16 46° N 22:00:28 10° ENE visible
27 May -3.3 23:30:50 10° WNW 23:34:04 58° NNE 23:35:33 28° E visible
28 May -1.5 01:07:25 10° WNW 01:08:10 15° W 01:08:10 15° W visible
28 May -2.9 22:38:32 10° WNW 22:41:44 48° N 22:44:51 10° E visible
29 May -3.1 00:15:04 10° WNW 00:17:28 43° W 00:17:28 43° W visible
29 May -2.7 21:46:10 10° WNW 21:49:21 44° N 21:52:30 10° ENE visible
29 May -3.9 23:22:46 10° WNW 23:26:03 87° NNE 23:26:49 49° ESE visible
30 May -3.5 22:30:27 10° WNW 22:33:44 63° NNE 22:36:10 16° E visible
